Regional Weather Roundup
Issued by NWS

Home | Current Version | Previous Version | Text Only | Print | Product List | Glossary Off
Versions: 1 2 3 4 5 6 7 8 9 10 11 12 13 14 15 16 17 18 19 20 21 22 23 24 25 26 27 28 29 30 31 32 33 34 35 36 37 38 39 40 41 42 43 44 45 46 47 48 49 50

000
ASUS43 KMKX 310011
RWRWI

WISCONSIN REGIONAL WEATHER ROUNDUP
NATIONAL WEATHER SERVICE MILWAUKEE/SULLIVAN WI
700 PM CDT MON MAY 30 2016

NOTE: "FAIR" INDICATES FEW OR NO CLOUDS BELOW 12,000 FEET WITH NO
SIGNIFICANT WEATHER AND/OR OBSTRUCTIONS TO VISIBILITY.

WIZ001-002-006>008-014>016-023>028-310100-
NORTHWEST WISCONSIN

CITY           SKY/WX    TMP DP  RH WIND       PRES   REMARKS
SUPERIOR ARPT  CLOUDY    64  50  60 CALM      29.91F
6HR MIN TEMP:  64; 6HR MAX TEMP:  83;

ASHLAND        MOSUNNY   74  48  39 E8        29.94R
6HR MIN TEMP:  74; 6HR MAX TEMP:  82;

HAYWARD        PTSUNNY   75  62  64 CALM      29.94F
6HR MIN TEMP:  72; 6HR MAX TEMP:  80; 6HR PCP:  0.02;

SIREN          SUNNY     80  47  32 SW7       29.92F
6HR MIN TEMP:  79; 6HR MAX TEMP:  82;

CUMBERLAND     SUNNY     77  52  41 S9        29.94F
RICE LAKE      SUNNY     79  48  33 S6        29.95S
6HR MIN TEMP:  76; 6HR MAX TEMP:  81;

CHETEK         MOSUNNY   78  53  41 S3        29.94S
6HR MIN TEMP:  75; 6HR MAX TEMP:  80;

LADYSMITH      SUNNY     78  52  40 SW6       29.97S
6HR MIN TEMP:  75; 6HR MAX TEMP:  80;

EAU CLAIRE     SUNNY     79  51  37 S5        29.93F
6HR MIN TEMP:  78; 6HR MAX TEMP:  82;

MENOMONIE      SUNNY     79  51  37 S5        29.93S
6HR MIN TEMP:  79; 6HR MAX TEMP:  85;

NEW RICHMOND   MOSUNNY   79  49  35 SE7       29.92F
6HR MIN TEMP:  78; 6HR MAX TEMP:  81;

OSCEOLA        MOSUNNY   80  52  37 SE9       29.93F HX  80
6HR MIN TEMP:  79; 6HR MAX TEMP:  82;

$$

WIZ003>005-009-010-017-018-310100-
NORTH CENTRAL WISCONSIN

CITY           SKY/WX    TMP DP  RH WIND       PRES   REMARKS
MANITOWISH WTR NOT AVBL
ARBOR VITAE    PTSUNNY   76  48  37 CALM      29.98S
6HR MIN TEMP:  73; 6HR MAX TEMP:  77;

WOODRUFF       PTSUNNY   76  48  37 CALM      29.98S
6HR MIN TEMP:  73; 6HR MAX TEMP:  77;

RHINELANDER    MOSUNNY   75  48  38 CALM      29.99R
6HR MIN TEMP:  74; 6HR MAX TEMP:  79;

EAGLE RIVER      N/A     73  41  31 CALM      29.98R
LAND O LAKES   SUNNY     74  40  28 N7        29.99R
6HR MIN TEMP:  73; 6HR MAX TEMP:  77;

PHILLIPS       PTSUNNY   76  52  43 W3        29.96S
6HR MIN TEMP:  73; 6HR MAX TEMP:  78;

TOMAHAWK       SUNNY     75  49  38 W5        29.98R
6HR MIN TEMP:  73; 6HR MAX TEMP:  78;

MEDFORD        SUNNY     75  54  48 SW6       29.98R
6HR MIN TEMP:  73; 6HR MAX TEMP:  77;

MERRILL        SUNNY     77  50  39 W5        29.98S
$$

WIZ029-030-035-036-043>047-310100-
CENTRAL WISCONSIN

CITY           SKY/WX    TMP DP  RH WIND       PRES   REMARKS
WAUSAU         SUNNY     78  49  35 SW6       29.96S
6HR MIN TEMP:  77; 6HR MAX TEMP:  80;

MOSINEE        SUNNY     75  48  38 W5        29.99S
MARSHFIELD     SUNNY     79  47  32 CALM      29.96F
6HR MIN TEMP:  76; 6HR MAX TEMP:  80;

STEVENS POINT  SUNNY     76  46  34 NW3       29.98S
6HR MIN TEMP:  74; 6HR MAX TEMP:  78;

WAUPACA        SUNNY     81  46  29 W5        29.97S HX  80
6HR MIN TEMP:  80; 6HR MAX TEMP:  82; 6HR PCP:  0.01;

WAUTOMA        SUNNY    N/A N/A N/A N6        29.97S
WISC RAPIDS    MOSUNNY   80  44  27 NE6       29.98S
6HR MIN TEMP:  79; 6HR MAX TEMP:  83;

CAMP DOUGLAS   SUNNY     79  55  42 SW5       29.96S HX  80
6HR MIN TEMP:  78; 6HR MAX TEMP:  83;

$$

WIZ011>013-019>022-031-037>040-048>050-310100-
NORTHEAST WISCONSIN

CITY           SKY/WX    TMP DP  RH WIND       PRES   REMARKS
ANTIGO         SUNNY     74  54  49 CALM      29.98S
6HR MIN TEMP:  72; 6HR MAX TEMP:  76; 6HR PCP:  0.01;

SHAWANO        SUNNY     80  46  30 W3        29.96S
6HR MIN TEMP:  79; 6HR MAX TEMP:  82;

OCONTO         MOSUNNY   78  50  36 W3        29.94S
6HR MIN TEMP:  76; 6HR MAX TEMP:  81;

STURGEON BAY   NOT AVBL
GREEN BAY      SUNNY     80  51  36 W3        29.96S HX  80
6HR MIN TEMP:  78; 6HR MAX TEMP:  82;

MANITOWOC      SUNNY     66  56  70 SE8       29.99R
6HR MIN TEMP:  66; 6HR MAX TEMP:  79;

APPLETON       MOSUNNY   77  43  29 CALM      29.96S
CLINTONVILLE   SUNNY     79  45  29 W3        29.96S
OSHKOSH        SUNNY     76  52  43 SE7       29.97S
6HR MIN TEMP:  76; 6HR MAX TEMP:  81;

$$

WIZ032>034-041-042-053>061-310100-
SOUTHWEST WISCONSIN

CITY           SKY/WX    TMP DP  RH WIND       PRES   REMARKS
LA CROSSE      SUNNY     82  47  29 S7        29.92F HX  80
6HR MIN TEMP:  80; 6HR MAX TEMP:  85;

SPARTA         SUNNY     80  49  33 S3        29.95F
6HR MIN TEMP:  79; 6HR MAX TEMP:  82;

VIROQUA        SUNNY     80  46  30 SE6       29.96F
6HR MIN TEMP:  78; 6HR MAX TEMP:  82;

BOSCOBEL       MOSUNNY   80  54  40 CALM      29.94F HX  80
6HR MIN TEMP:  80; 6HR MAX TEMP:  86;

PRAIRIE DU CHI MOSUNNY   81  47  30 E3        29.92F HX  80
6HR MIN TEMP:  79; 6HR MAX TEMP:  83;

PLATTEVILLE    SUNNY     80  47  31 E3        29.96F
$$

WIZ056-057-062-063-064-067-068-310100-
SOUTH CENTRAL WISCONSIN

CITY           SKY/WX    TMP DP  RH WIND       PRES   REMARKS
REEDSBURG      SUNNY     78  50  37 CALM      29.96S
6HR MIN TEMP:  77; 6HR MAX TEMP:  81;

BARABOO/DELLS  SUNNY     80  43  26 SW3       29.97S
6HR MIN TEMP:  79; 6HR MAX TEMP:  83;

LONE ROCK      SUNNY     81  50  33 SE5       29.95F HX  80
6HR MIN TEMP:  79; 6HR MAX TEMP:  85;

MINERAL POINT  HAZE      81  46  30 CALM      29.97F VSB 3/4 HX  80
MADISON        MOSUNNY   79  57  46 N3        29.97S HX  80
6HR MIN TEMP:  78; 6HR MAX TEMP:  82;

MIDDLETON      SUNNY     79  51  36 E5        29.98S
6HR MIN TEMP:  79; 6HR MAX TEMP:  82;

WATERTOWN      SUNNY     78  52  39 CALM      29.97F
6HR MIN TEMP:  78; 6HR MAX TEMP:  80;

MONROE         SUNNY     81  37  21 CALM      29.97F
JANESVILLE     MOSUNNY   82  45  26 N7        29.96F HX  80
$$

WIZ051-052-058>065-066-070>072-310100-
SOUTHEAST WISCONSIN

CITY           SKY/WX    TMP DP  RH WIND       PRES   REMARKS
MILWAUKEE      MOSUNNY   70  58  65 SE8       29.99R
6HR MIN TEMP:  70; 6HR MAX TEMP:  76;

WAUKESHA       SUNNY     75  55  50 N9        29.99S
MILWAUKEE/TIMM SUNNY     73  52  46 SE8       30.00R
RACINE         SUNNY     70  57  63 E6        30.00S
6HR MIN TEMP:  70; 6HR MAX TEMP:  75;

BURLINGTON     SUNNY     76  56  50 E8        29.97S
6HR MIN TEMP:  76; 6HR MAX TEMP:  82;

KENOSHA        SUNNY     74  56  53 E7        29.98S
6HR MIN TEMP:  74; 6HR MAX TEMP:  84;

FOND DU LAC    SUNNY     80  47  31 CALM      29.97S
6HR MIN TEMP:  77; 6HR MAX TEMP:  81;

SHEBOYGAN      SUNNY     73  56  54 S9        29.98S
6HR MIN TEMP:  73; 6HR MAX TEMP:  80;

WEST BEND      SUNNY     72  55  56 SE5       29.99S
JUNEAU         SUNNY     78  51  40 CALM      29.99R
6HR MIN TEMP:  75; 6HR MAX TEMP:  79;

$$

LSZ147-162-310100-
LAKE SUPERIOR

STATION/POSITION TIME  TEMP    WIND        PRES    WAVE
                       AIR SEA DIR/SP/G            HT/PER
                 (UTC) (F)     (DEG/KT/KT) (MB)    (FT/S)
W MID LAKE BUOY  2350   51 38  200/  4/  6 1014.5R   1
DEVILS ISLAND    0000   72      70/  9/ 10 1013.7R
SAXON HARBOR     2300   70      60/  7/  9 1013.5S
$$

LMZ867-665-643>646-310100-
LAKE MICHIGAN

STATION/POSITION TIME  TEMP    WIND        PRES    WAVE
                       AIR SEA DIR/SP/G            HT/PER
                 (UTC) (F)     (DEG/KT/KT) (MB)    (FT/S)
CHAMBERS ISLAND  2300   74     140/  3/  6 1013.5F
N MID LAKE BUOY  2350   53 50  210/ 10/ 10 1013.7F   1/ 3
NORTHPORT PIER   2300   69     170/  7/ 12 1013.9S
KEWAUNEE LAKESHO 2300   60                   N/A
SHEBOYGAN LAKESH 0000   67     180/ 12/ 13 1015.5R
PORT WASHINGTON  2300   67     180/  3/  5 1016.3
S MID LAKE BC1F1C2F2C3F3C4F4C5F5C6F6C7F7C8M1C9M2Ca!


USA.gov is the U.S. government's official web portal to all federal, state and local government web resources and services.